Regional Weather Roundup
Issued by NWS

Home | Current Version | Previous Version | Graphics & Text | Print | Product List | Glossary Off
Versions: 1 2 3 4 5 6 7 8 9 10 11 12 13 14 15 16 17 18 19 20 21 22 23 24 25 26 27 28 29 30 31 32 33 34 35 36 37 38 39 40 41 42 43 44 45 46 47 48 49 50

000
ASUS43 KMPX 311610
RWRMN
WEATHER ROUNDUP FOR MINNESOTA
NATIONAL WEATHER SERVICE TWIN CITIES/CHANHASSEN MN
1000 AM CST SAT JAN 31 2015


NOTE: "FAIR" INDICATES FEW OR NO CLOUDS BELOW 12,000 FEET WITH NO
SIGNIFICANT WEATHER AND/OR OBSTRUCTIONS TO VISIBILITY. N/A MEANS
CURRENT SKY AND/OR WEATHER CONDITIONS ARE NOT AVAILABLE.

MNZ060>063-068>070-311700-
   Twin Cities Metro

CITY           SKY/WX    TMP DP  RH WIND       PRES   REMARKS
TWIN CITIES    CLOUDY    28  22  78 NE9       30.19R WCI  19
ST PAUL        CLOUDY    28  22  78 NE10      30.21R WCI  19
CRYSTAL        CLOUDY    29  22  75 NE8       30.18S WCI  21
BLAINE         CLOUDY    28  23  80 N12G17    30.19R WCI  18
LAKEVILLE      MOSUNNY   25  23  93 NE5       30.18S WCI  19
EDEN PRAIRIE   CLOUDY    27  22  81 NE8       30.18R WCI  19
SOUTH ST PAUL  CLOUDY    29  23  79 N6        30.19R WCI  23
LAKE ELMO      CLOUDY    28  23  80 N10       30.19S WCI  19
$$
MNZ001>005-007-008-013>017-022>024-027-028-311700-
   Northwest Minnesota

CITY           SKY/WX    TMP DP  RH WIND       PRES   REMARKS
BEMIDJI        SUNNY      6  -5  60 N13       30.29R WCI -10
HALLOCK        MOSUNNY   -2  -9  71 N17       30.48R WCI -24
ROSEAU         MOSUNNY   -2  -9  71 N12       30.42R WCI -20
WARROAD        MOSUNNY   -2  -9  71 N9        30.41R WCI -18
THIEF RVR FALL SUNNY      3  -6  66 N18       30.39R WCI -17
CROOKSTON      SUNNY      5  -2  72 N18G24    30.43R WCI -15
FOSSTON        SUNNY      7   0  72 N16G24    30.34R WCI -11
DETROIT LAKES  MOSUNNY   14   9  79 N8        30.29R WCI   3
MOORHEAD       SUNNY     10   0  61 N22G28      N/A  WCI  -9
PARK RAPIDS    CLOUDY    13  -6  42 N13       30.25R WCI  -2
MAHNOMEN       FAIR       7  -2  66 N18       30.32R WCI -12
$$
MNZ006-009>011-018-025>026-311700-
   North Central Minnesota

CITY           SKY/WX    TMP DP  RH WIND       PRES   REMARKS
BAUDETTE       PTSUNNY   -2  -8  76 NW17      30.37R WCI -23
FLAG ISLAND    MOSUNNY   -6  -9  84 N14       30.40R WCI -26
INTL FALLS     CLOUDY     6  -1  73 N10       30.32R HAZE    WCI  -9
WASKISH        MOSUNNY    3  -4  72 NW10      30.34R WCI -12
BIG FORK       LGT SNOW  10   3  72 NW5       30.28R WCI   2
LONGVILLE      SUNNY     16   7  67 N7        30.25R WCI   6
GRAND RAPIDS   MOSUNNY   12   7  79 N12       30.23R WCI  -2
CRANE LAKE     MOSUNNY    7   0  72 N7        30.31R WCI  -5
ORR            PTSUNNY   10   0  61 N5        30.24R WCI   2
COOK           FLURRIES  10   1  67 N6        30.26R WCI   1
WALKER         FAIR      10  -4  52 N7        30.27R WCI  -1
$$
MNZ012-019>021-037-311700-
   Northeast Minnesota

CITY           SKY/WX    TMP DP  RH WIND       PRES   REMARKS
DULUTH         FLURRIES  19  10  68 N12       30.19R WCI   7
ELY            MOSUNNY   10   1  67 N9G16     30.22R WCI  -2
HIBBING        PTSUNNY   14   4  64 N14       30.23R WCI  -1
EVELETH        LGT SNOW  12   5  73 N9        30.23R WCI   0
DULUTH HARBOR  MOSUNNY   23  12  63 N10       30.26R WCI  12
TWO HARBORS    LGT SNOW  21  10  63 N9G17     30.19R WCI  11
SILVER BAY     FLURRIES  18   7  62 NW12      30.20R WCI   5
GRAND MARAIS     N/A     16   4  59 MISG      30.23R
G MARAIS ARPRT LGT SNOW   7   0  72 N8        30.13R WCI  -6
$$
MNZ029>031-032-039>041-046>048-054>057-064-311700-
   West Central Minnesota

CITY           SKY/WX    TMP DP  RH WIND       PRES   REMARKS
FERGUS FALLS   FLURRIES  16  10  79 N10G17    30.31R WCI   3
WHEATON        CLOUDY    14  10  85 N17       30.29S WCI  -3
MORRIS         CLOUDY    21  19  93 N12       30.22R WCI   9
ALEXANDRIA     CLOUDY    22  17  81 NE13      30.21R WCI  10
ELBOW LAKE     CLOUDY    18  14  85 N13       30.24R WCI   5
WADENA         FLURRIES  19  14  79 N10       30.23R WCI   8
GLENWOOD       CLOUDY    21  19  93 NE14      30.20R WCI   8
APPLETON       CLOUDY    23  19  86 N12       30.23R WCI  12
BENSON         CLOUDY    25  21  86 NE8       30.22R WCI  16
ORTONVILLE     CLOUDY    19  16  86 N14       30.24R WCI   6
MADISON        CLOUDY    25  21  86 N14       30.24R WCI  13
WILLMAR        CLOUDY    25  21  86 N13       30.22R WCI  13
$$
MNZ033>034-036-042>043-049>051-058-059-311700-
   Central Minnesota

CITY           SKY/WX    TMP DP  RH WIND       PRES   REMARKS
ST CLOUD       CLOUDY    26  19  74 N9        30.21R WCI  17
SAUK CENTRE    CLOUDY    23  19  85 N13       30.21R WCI  12
PAYNESVILLE    CLOUDY    22  20  91 N12G17    30.20R WCI  11
AITKIN         MOSUNNY   25  14  63 N13       30.21R WCI  13
PINE RIVER     MOSUNNY   16   9  73 N10       30.27R WCI   3
BRAINERD       PTSUNNY   21  12  68 N12       30.22R WCI   9
STAPLES        CLOUDY    19  12  73 N12       30.23R WCI   7
LONG PRAIRIE   CLOUDY    23  18  80 NW9       30.21R WCI  13
LITTLE FALLS   CLOUDY    23  16  74 N7        30.23R WCI  15
LITCHFIELD     CLOUDY    27  25  93 N9        30.21R WCI  17
BUFFALO        CLOUDY    27  22  82 N9        30.21R WCI  17
MAPLE LAKE     CLOUDY    28  25  89 N8        30.21R WCI  19
$$
MNZ037-044-045-052-053-311700-
   East Central Minnesota

CITY           SKY/WX    TMP DP  RH WIND       PRES   REMARKS
PRINCETON      CLOUDY    27  21  80 N7        30.20R WCI  19
MORA           PTSUNNY   27  18  69 N3        30.22S
CAMBRIDGE      CLOUDY    28  18  64 N3        30.19R
RUSH CITY      CLOUDY    26  19  76 N7        30.21S WCI  18
MOOSE LAKE     CLOUDY    23  14  68 NE12      30.20R WCI  12
HINCKLEY       CLOUDY    27  19  74 N9        30.21R WCI  17
CLOQUET        FLURRIES  19  12  73 N12G17    30.20R WCI   7
MCGREGOR       CLOUDY    21  14  73 N9        30.22R WCI  11
$$
MNZ071>073-080-081-089-090-097-098-311700-
   Southwest Minnesota

CITY           SKY/WX    TMP DP  RH WIND       PRES   REMARKS
MONTEVIDEO     CLOUDY    25  21  86 NE8       30.24R WCI  16
GRANITE FALLS  CLOUDY    24  22  93 N6        30.23R FOG     WCI  17
CANBY          CLOUDY    22  20  95 N8        30.24R FOG     WCI  12
MARSHALL       CLOUDY    23  19  86 NE13      30.21S WCI  11
REDWOOD FALLS  CLOUDY    25  23  92 N6        30.20R FOG     WCI  18
OLIVIA         CLOUDY    27  25  93 N8        30.20R FOG     WCI  18
PIPESTONE      FOG       21  21 100 E7        30.14S VSB 1/4 WCI  13
WINDOM         CLOUDY    25  25 100 N9        30.16F FOG     WCI  15
WORTHINGTON    CLOUDY    25  21  86 NE14      30.16R WCI  13
JACKSON        CLOUDY    27  25  93 N9        30.15S WCI  17
TRACY          CLOUDY    25  24  96 N8        30.17F FOG     WCI  16
SLAYTON        FOG       23  23  97 CALM      30.16S VSB 1/2
$$
MNZ065>067-074>077-082>085-091>093-311700-
   South Central Minnesota

CITY           SKY/WX    TMP DP  RH WIND       PRES   REMARKS
MANKATO        CLOUDY    27  21  80 NE7       30.18R WCI  19
NEW ULM        CLOUDY    25  21  86 CALM      30.19S
ST JAMES       CLOUDY    27  25  93 NW7       30.19S WCI  19
FAIRMONT       CLOUDY    25  21  86 N10       30.15S WCI  15
GLENCOE        CLOUDY    28  26  96 N7        30.19R WCI  20
FARIBAULT      CLOUDY    27  25  93 N5        30.18R FOG     WCI  21
OWATONNA       PTSUNNY   27  25  93 CALM      30.16R FOG
WASECA         CLOUDY    28  27  93 NE5       30.18S FOG     WCI  23
ALBERT LEA     CLOUDY    27  27 100 N5        30.15S FOG     WCI  21
$$
MNZ078>079-086>088-094>096-311700-
   Southeast Minnesota

CITY           SKY/WX    TMP DP  RH WIND       PRES   REMARKS
ROCHESTER      CLOUDY    26  23  88 N6        30.16R WCI  19
RED WING       CLOUDY    28  21  74 CALM      30.19R
STANTON        CLOUDY    28  25  86 N3        30.18R
DODGE CENTER   CLOUDY    28  27  93 CALM      30.15R
WINONA         CLOUDY    30  23  74 CALM      30.19S
AUSTIN         CLOUDY    25  21  86 CALM      30.16R
PRESTON        CLOUDY    25  21  86 CALM      30.16R
$$
ABBREVIATIONS USED IN REMARKS
   TC - TEMPERATURES IN CELSIUS
  WCI - WIND CHILL INDEX
   HX - HEAT INDEX
  VSB - VISIBILITY
$$


USA.gov is the U.S. government's official web portal to all federal, state and local government web resources and services.